This is the latest recevied weather packets stored in our database for station/object KD9IXX-13. If no packets are shown the sender has not sent any weather packets the latest 10 day(s).
| Time | Temp. | Humidity | Pressure | Rain* | Wind** | Luminosity | Snow |
|---|---|---|---|---|---|---|---|
| 1777659302 | 10° C | 54% | 1018.5 hPa | 0 mm | - | 356 W/m² | - |
| 1777659002 | 9.44° C | 56% | 1018.2 hPa | 0 mm | - | 257 W/m² | - |
| 1777658702 | 9.44° C | 56% | 1018.1 hPa | 0 mm | - | 216 W/m² | - |
| 1777658402 | 9.44° C | 56% | 1018.4 hPa | 0 mm | - | 227 W/m² | - |
| 1777658102 | 9.44° C | 59% | 1018.1 hPa | 0 mm | - | 197 W/m² | - |
| 1777657803 | 9.44° C | 58% | 1018.2 hPa | 0 mm | - | 232 W/m² | - |
| 1777657502 | 9.44° C | 58% | 1018.1 hPa | 0 mm | - | 156 W/m² | - |
| 1777657202 | 9.44° C | 59% | 1018.1 hPa | 0 mm | - | 131 W/m² | - |
| 1777656902 | 9.44° C | 60% | 1018.1 hPa | 0 mm | - | 171 W/m² | - |
| 1777656602 | 10° C | 57% | 1018.4 hPa | 0 mm | - | 157 W/m² | - |
| 1777656302 | 10° C | 62% | 1018.1 hPa | 0 mm | - | 254 W/m² | - |
| 1777656002 | 10° C | 60% | 1018 hPa | 0 mm | - | 386 W/m² | - |
| 1777655702 | 9.44° C | 60% | 1018.2 hPa | 0 mm | - | 313 W/m² | - |
| 1777655402 | 9.44° C | 61% | 1018 hPa | 0 mm | - | 198 W/m² | - |
| 1777655102 | 10° C | 61% | 1018.2 hPa | 0 mm | - | 271 W/m² | - |
| 1777654802 | 10° C | 59% | 1018 hPa | 0 mm | - | 435 W/m² | - |
| 1777654502 | 10° C | 61% | 1018 hPa | 0 mm | - | 332 W/m² | - |
| 1777654202 | 9.44° C | 62% | 1018 hPa | 0 mm | - | 350 W/m² | - |
| 1777653902 | 8.89° C | 64% | 1018.2 hPa | 0 mm | - | 330 W/m² | - |
| 1777653602 | 8.89° C | 64% | 1018.1 hPa | 0 mm | - | 193 W/m² | - |
| 1777653302 | 9.44° C | 62% | 1018.1 hPa | 0 mm | - | 215 W/m² | - |
| 1777653002 | 10° C | 59% | 1018.2 hPa | 0 mm | - | 253 W/m² | - |
| 1777652702 | 10° C | 60% | 1017.9 hPa | 0 mm | - | 343 W/m² | - |
| 1777652402 | 10° C | 61% | 1018.2 hPa | 0 mm | - | 274 W/m² | - |
| 1777652102 | 9.44° C | 66% | 1018.2 hPa | 0 mm | - | 766 W/m² | - |
* Rain latest hour (hover to see other rain measurements)
** Current wind speed in m/s (hover to see current wind gust speed)